Weather History for SBSV - October, 2012

Change the Weather History Date:

Tuesday, October 23, 2012

  Actual Average Record
Temperature  
Mean Temperature 78 °F -  
Max Temperature 82 °F 83 °F - ()
Min Temperature 75 °F 73 °F - ()
Cooling Degree Days 14    
Growing Degree Days 28 (Base 50)    
Moisture  
Dew Point 69 °F    
Average Humidity 72    
Maximum Humidity 78    
Minimum Humidity 66    
Precipitation  
Precipitation 0.00 in - - ()
Sea Level Pressure  
Sea Level Pressure 29.92 in    
Wind  
Wind Speed 10 mph ()    
Max Wind Speed 20 mph    
Max Gust Speed -    
Visibility 6.4 miles    
Events      
T = Trace of Precipitation, MM = Missing Value Source: Averaged Metar Reports

Daily Weather History Graph

Daily Weather History Graph

Search for Another Location

Airport or City:

Trip Planner

Search our weather history database for the weather conditions in past years. The results will help you decide how hot, cold, wet, or windy it might be!

Date:

Astronomy

Oct. 23, 2012 Rise Set
Actual Time 5:03 AM BRT 5:31 PM BRT
Civil Twilight 4:41 AM BRT 5:53 PM BRT
Nautical Twilight 4:16 AM BRT 6:19 PM BRT
Astronomical Twilight 3:50 AM BRT 6:44 PM BRT
Moon 12:35 PM BRT (10/23) 12:31 AM BRT (10/23)
Length of Visible Light 13h 12m
Length of Day
12h 28m
Waxing Gibbous, 66% of the Moon is Illuminated
Oct 23
Waxing Gibbous
Oct 29
Full
Nov 6
Last Quarter
Nov 13
New
Nov 20
First Quarter

Hourly Weather History & Observations

Time (BRT) Temp. Heat Index Dew Point Humidity Pressure Visibility Wind Dir Wind Speed Gust Speed Precip Events Conditions
12:00 AM 77.0 °F - 66.2 °F 69% 29.92 in 6.2 mi ENE 9.2 mph - N/A   Scattered Clouds
1:00 AM 77.0 °F - 68.0 °F 74% 29.89 in 6.2 mi East 10.4 mph - N/A   Partly Cloudy
2:00 AM 77.0 °F - 68.0 °F 74% 29.89 in 6.2 mi ENE 11.5 mph - N/A   Partly Cloudy
3:00 AM 76 °F - 68 °F 69% 29.90 in 12 mi ENE 6.9 mph - -   Scattered Clouds
3:00 AM 75.2 °F - 68.0 °F 78% 29.89 in 6.2 mi ENE 6.9 mph - N/A   Partly Cloudy
4:00 AM 75.2 °F - 68.0 °F 78% 29.89 in 6.2 mi ENE 5.8 mph - N/A   Scattered Clouds
5:00 AM 75.2 °F - 68.0 °F 78% 29.89 in 6.2 mi NE 5.8 mph - N/A   Scattered Clouds
6:00 AM 77.0 °F - 68.0 °F 74% 29.92 in 6.2 mi ENE 11.5 mph - N/A   Partly Cloudy
7:00 AM 80.6 °F 83.9 °F 69.8 °F 70% 29.95 in 6.2 mi East 11.5 mph - N/A   Scattered Clouds
8:00 AM 80.6 °F 83.9 °F 69.8 °F 70% 29.98 in 6.2 mi East 15.0 mph - N/A   Scattered Clouds
9:00 AM 80.6 °F 83.9 °F 69.8 °F 70% 29.98 in 6.2 mi East 13.8 mph - N/A   Scattered Clouds
10:00 AM 82.4 °F 86.3 °F 69.8 °F 66% 29.98 in 6.2 mi ENE 16.1 mph - N/A   Scattered Clouds
11:00 AM 82.4 °F 86.3 °F 69.8 °F 66% 29.95 in 6.2 mi ENE 17.3 mph - N/A   Scattered Clouds
12:00 PM 82.4 °F 87.2 °F 71.6 °F 70% 29.95 in 6.2 mi East 13.8 mph - N/A   Scattered Clouds
1:00 PM 82.4 °F 87.2 °F 71.6 °F 70% 29.92 in 6.2 mi East 18.4 mph - N/A   Scattered Clouds
2:00 PM 82.4 °F 86.3 °F 69.8 °F 66% 29.89 in 6.2 mi ENE 17.3 mph - N/A   Scattered Clouds
3:00 PM 82.4 °F 86.3 °F 69.8 °F 66% 29.86 in 6.2 mi ENE 19.6 mph - N/A   Partly Cloudy
4:00 PM 80.6 °F 83.9 °F 69.8 °F 70% 29.86 in 6.2 mi ENE 17.3 mph - N/A   Partly Cloudy
6:00 PM 78.8 °F - 69.8 °F 74% 29.89 in 6.2 mi East 8.1 mph - N/A   Partly Cloudy
7:00 PM 78.8 °F - 69.8 °F 74% 29.89 in 6.2 mi NE 10.4 mph - N/A   Partly Cloudy
8:00 PM 78.8 °F - 69.8 °F 74% 29.92 in 6.2 mi ENE 13.8 mph - N/A   Scattered Clouds
9:00 PM 77.0 °F - 69.8 °F 78% 29.95 in 6.2 mi NE 11.5 mph - N/A   Partly Cloudy
10:00 PM 78.8 °F - 69.8 °F 74% 29.95 in 6.2 mi ENE 10.4 mph - N/A   Scattered Clouds
11:00 PM 77.0 °F - 68.0 °F 74% 29.95 in 6.2 mi ENE 9.2 mph - N/A   Partly Cloudy